Location: NJAA Observatory
(40.6819°N, 74.8979°W)
Time: 07:37:03
(UTC-04:00)

Iridium 84 - Visible Passes

Search period start: 27 August 2016 00:00
Search period end: 06 September 2016 00:00
Orbit: 776 x 779 km, 86.4° (Epoch: 26 August)

Date Brightness Start Highest point End Pass type
(mag) Time Alt. Az. Time Alt. Az. Time Alt. Az.
27 Aug 5.4 21:41:45 10° N 21:47:00 84° E 21:48:29 48° S visible
27 Aug 8.3 23:25:48 10° WNW 23:26:53 11° WNW 23:27:58 10° W visible
28 Aug 5.8 21:08:24 10° N 21:13:25 45° E 21:15:17 32° SE visible
28 Aug 7.7 22:50:01 10° NW 22:53:44 20° W 22:55:46 16° WSW visible
29 Aug 6.6 20:35:26 10° NNE 20:39:42 25° ENE 20:42:07 18° ESE visible
29 Aug 6.8 22:15:44 10° NNW 22:20:28 36° W 22:22:36 26° SW visible
30 Aug 7.3 20:03:13 10° NE 20:05:50 14° ENE 20:08:27 10° ESE visible
30 Aug 5.8 21:41:53 10° N 21:47:04 68° W 21:49:28 32° SSW visible
31 Aug 5.5 21:08:22 10° N 21:13:34 66° E 21:16:22 27° SSE visible
31 Aug 8.2 22:51:02 10° NW 22:53:38 14° WNW 22:56:13 10° WSW visible
01 Sep 6.1 20:35:08 10° NNE 20:39:55 35° E 20:43:18 17° SE visible
01 Sep 7.5 22:16:13 10° NNW 22:20:26 25° W 22:23:47 14° SW visible
02 Sep 6.9 20:02:22 10° NNE 20:06:10 20° ENE 20:09:55 10° ESE visible
02 Sep 6.4 21:42:08 10° NNW 21:47:07 46° W 21:50:46 18° SSW visible
03 Sep 5.5 21:08:25 10° N 21:13:40 86° W 21:17:48 17° S visible
04 Sep 5.7 20:35:01 10° N 20:40:06 51° E 20:44:54 11° SSE visible
04 Sep 8.0 22:16:56 10° NW 22:20:21 18° W 22:23:45 10° WSW visible
05 Sep 6.4 20:01:56 10° NNE 20:06:25 28° E 20:10:52 10° SE visible
05 Sep 7.2 21:42:30 10° NNW 21:47:06 32° W 21:51:41 10° SW visible
